World > North America > United States > Missouri > Tarkio

Tarkio, MO Hourly Weather Conditions

Feedback E-mail the Weather

Quick WX

Tarkio, MO Weather Maps

°F °C°F °C
Tarkio Weather Map
UTC Time: 11/27/2022, 19:51
Your Time:

Tarkio, MO Regional Weather

Expires:202211272000;;904577
ASUS43 KEAX 271915
RWREAX

WEATHER ROUNDUP FOR EASTERN KANSAS AND NORTHWEST MISSOURI
NATIONAL WEATHER SERVICE KANSAS CITY/PLEASANT HILL MO
100 PM CST SUN NOV 27 2022


MOZ001>008-011>017-020>025-030>033-038>040-044>046-053-054-272000-
...NORTHERN AND CENTRAL MISSOURI...
  
CITY           SKY/WX    TMP DP  RH WIND       PRES   REMARKS
ST. JOSEPH     PTSUNNY   44  32  62 NW16G25   29.84R                  
MOSBY          PTSUNNY   43  32  65 NW14G20   29.82R                  
HARRISONVILLE  PTSUNNY   43  36  75 NW10G17   29.84S                  
WHITEMAN AFB   CLOUDY    42  38  83 NW10      29.74R                  
CLINTON        CLOUDY    43  37  81 NW10G16   29.80R                  
SEDALIA        CLOUDY    43  39  86 NW13      29.79R                  
MARSHALL       CLOUDY    41  37  87 NW13      29.78S WCI  34          
CHILLICOTHE      N/A     47  37  68 NW9G22    29.78S                  
MOBERLY        CLOUDY    45  37  76 NW14      29.74R                  
KIRKSVILLE     CLOUDY    42  36  79 NW12      29.73R                  

$$


SKY/WX - Weather  TMP - Temperature  DP - Dew Point  RH - Humidity
WIND - Wind Direction/Speed PRES - Barometric Pressure VSB - Visibility
WCI - Wind Chill Index E13G22 Wind - East Wind 13 mph/Gusts of 22 mph

Trending Headlines

Trending Entertainment Headlines

Tarkio Radar Loop

Use the map search tool if you want to place a location marker on the radar map...

Tarkio Quick Facts

National Two Day Weather Forecast


E-mail the Tarkio Weather Forecast

Voice your opinion or tell us about page issues...